RH
18 18 17 18 17 18 18 18 18 17 15 13 14 13 12 12 11 11 11 11 11 11 11 10 10 10 9 9 9 10 11 10 10 10 11 13 12 13 13 13 13 11 10 8 8 10 12 13 16 14 11 14 18 23 16 21 50 47 36 34 32 43 51 47 39 41 39 29 36 53 71 72 60 49 39 37 38 43 41 40 45 38 34 36 32 30 32 33
19 18 17 17 17 17 18 18 18 17 16 15 14 14 14 13 12 12 11 12 12 12 12 11 11 10 10 9 9 13 15 11 11 12 12 13 12 12 13 13 14 12 11 9 11 14 14 18 21 20 17 15 18 21 17 16 31 47 45 31 40 57 52 42 35 37 31 20 38 56 61 67 60 45 34 32 40 42 37 43 43 37 38 36 36 34 33 34
18 18 18 17 17 17 17 18 17 17 17 16 14 13 14 12 13 12 12 13 12 12 12 12 12 10 10 9 9 14 16 11 11 14 12 12 12 13 13 13 14 13 12 11 13 16 16 19 18 20 20 15 22 22 16 18 25 42 38 21 45 63 46 38 35 33 29 25 40 50 52 60 55 40 31 31 38 40 42 48 41 36 39 38 40 37 33 35
17 18 17 17 17 16 16 17 16 16 16 15 14 13 13 13 13 12 13 12 10 11 11 12 12 10 10 10 9 12 14 11 11 13 12 12 13 13 13 13 14 12 13 12 13 17 18 19 19 21 20 17 29 26 14 19 20 25 28 25 41 49 33 27 28 30 31 33 44 49 48 49 45 36 32 31 29 36 45 45 42 37 36 42 44 38 34 35
17 17 17 17 16 16 16 16 16 16 15 14 13 13 12 12 12 12 13 11 10 10 10 11 11 10 10 10 10 11 14 14 12 11 12 13 12 13 12 12 14 12 13 12 14 16 14 17 19 23 24 18 23 21 13 18 20 19 28 33 39 36 18 20 30 30 32 38 46 45 36 36 35 31 36 35 26 35 42 38 45 41 34 43 44 38 36 36
16 16 16 16 16 16 15 15 15 14 14 13 12 12 12 11 12 12 11 11 11 10 10 10 11 11 10 11 12 13 14 15 14 11 12 14 12 13 12 12 13 12 13 13 14 14 14 15 14 21 27 21 19 18 17 24 23 19 26 29 34 32 16 22 31 28 33 33 36 38 30 32 30 26 40 42 28 35 43 47 56 49 37 38 39 37 36 38
16 16 16 15 15 15 14 15 14 13 13 11 12 12 12 11 11 11 11 11 11 10 10 10 12 11 11 13 14 20 21 15 13 11 12 13 13 13 11 12 12 12 13 12 14 15 17 15 13 25 26 19 20 19 23 30 24 15 22 23 24 28 19 24 29 29 35 25 29 36 23 25 26 22 33 35 28 31 37 50 60 51 40 38 40 40 36 37
16 16 15 15 15 14 14 14 13 12 11 10 11 12 12 11 10 10 11 11 10 10 10 9 11 11 13 14 14 25 26 15 12 11 12 12 12 13 11 12 11 12 13 12 16 16 17 14 15 25 22 22 23 20 26 28 27 22 22 24 21 24 25 29 32 30 30 23 26 28 18 23 29 25 26 24 24 28 30 41 53 48 45 45 43 43 39 39
16 16 15 14 14 13 14 13 13 12 10 10 10 11 11 11 10 10 10 10 10 11 13 12 10 10 13 16 17 22 20 12 11 12 12 11 11 13 11 11 11 12 12 14 16 14 17 16 18 20 18 27 22 23 33 24 27 31 25 25 18 23 30 26 27 27 28 28 24 19 19 25 30 28 25 23 25 34 38 44 52 43 43 48 45 47 44 42
15 15 14 15 14 13 14 13 12 11 11 11 9 10 11 11 10 9 9 10 11 13 16 15 13 12 12 18 21 20 16 12 11 12 12 11 11 11 12 11 11 12 12 16 16 16 20 17 20 22 20 28 24 28 36 20 25 38 37 31 23 34 37 24 21 25 28 27 24 19 19 26 30 27 24 26 30 37 41 47 55 46 42 46 48 51 43 39
16 16 15 16 15 14 13 12 13 12 12 11 10 10 9 11 10 9 9 9 12 14 13 16 16 14 14 20 22 18 14 11 12 13 12 13 11 10 12 13 12 12 13 16 16 16 19 17 21 22 18 21 24 31 34 27 28 35 37 26 30 45 35 24 22 22 24 21 25 23 18 29 29 24 25 26 33 39 36 42 56 55 51 49 49 52 47 42
16 16 16 16 15 14 14 13 14 14 14 12 10 10 9 11 10 10 10 8 12 12 11 14 16 16 18 23 24 17 11 10 13 13 13 14 12 11 13 13 13 13 13 14 15 14 16 20 21 22 22 21 24 25 25 35 34 31 33 19 32 54 37 29 30 24 23 19 27 26 20 35 35 26 28 30 37 40 35 40 50 53 53 53 52 51 54 53
16 16 15 15 14 14 14 14 16 16 16 13 11 10 9 9 10 10 10 10 12 11 13 15 17 20 19 22 21 12 10 12 13 12 13 13 13 13 13 14 13 13 13 12 13 13 14 21 22 29 35 32 29 23 30 46 37 27 31 28 36 50 42 34 31 26 21 23 32 27 26 44 44 33 32 35 39 37 36 41 45 48 48 49 49 46 49 51
16 15 14 13 13 13 13 14 16 16 14 13 11 10 10 9 10 11 10 11 12 14 18 18 19 21 20 22 16 9 13 13 13 13 13 12 13 13 12 13 13 13 14 13 12 12 16 19 22 33 37 38 30 24 48 63 50 31 27 52 55 37 46 47 37 29 15 26 38 25 29 41 36 34 34 34 38 37 40 43 44 47 46 44 44 43 44 45
15 14 13 13 13 12 13 14 15 14 12 11 10 10 10 10 9 9 10 12 15 19 21 19 19 21 24 23 13 10 13 11 14 15 14 15 15 15 14 12 13 14 13 13 13 13 16 16 21 31 30 37 38 34 52 55 58 53 26 51 64 39 57 58 44 45 22 24 37 26 34 40 32 36 37 36 40 40 41 45 46 44 43 43 42 42 43 45
15 14 13 13 13 12 13 13 14 13 11 10 11 11 10 11 11 12 15 17 19 20 18 17 18 19 22 19 12 12 13 14 17 15 16 16 15 17 17 14 14 14 13 13 14 12 16 20 29 38 29 32 49 54 55 43 53 66 35 38 53 40 51 44 35 58 44 26 30 29 35 36 34 39 39 39 42 42 43 46 46 44 45 43 42 43 45 47
15 13 13 13 12 12 12 12 14 12 11 11 9 9 12 16 17 18 20 18 18 18 15 16 17 17 16 14 14 15 17 18 16 16 17 15 16 18 17 19 18 15 16 13 13 14 16 26 33 37 42 49 60 53 41 40 46 54 44 42 52 44 41 39 34 48 48 32 29 33 35 31 36 44 42 44 45 42 44 46 46 46 46 46 47 49 49 51
13 13 13 13 12 12 11 12 14 12 12 12 7 11 18 21 23 23 19 15 17 17 14 17 19 19 17 16 18 17 19 19 17 17 16 15 16 19 20 21 21 19 22 19 15 18 18 33 41 33 42 51 51 39 30 50 46 28 32 35 43 46 38 42 43 42 42 34 33 35 35 36 43 48 45 47 49 45 47 48 48 49 50 53 55 54 54 56
13 14 12 12 12 11 11 12 13 12 13 10 6 12 18 21 23 20 14 13 22 20 16 24 24 20 21 21 21 18 19 18 17 16 16 18 16 20 22 19 26 23 22 24 20 27 27 32 39 29 35 42 46 44 36 56 49 24 37 39 36 41 37 42 48 57 52 34 39 42 41 49 50 51 49 49 51 48 50 51 50 54 57 58 58 58 60 63
13 13 11 12 11 10 11 11 12 13 15 10 5 11 18 25 28 29 28 26 32 31 27 36 32 23 23 23 22 20 20 16 15 18 17 19 19 22 21 23 39 33 28 32 25 36 36 26 35 35 40 47 55 60 49 58 57 36 41 43 40 40 38 41 45 66 64 38 48 55 53 61 56 54 54 50 52 53 55 56 57 60 59 59 61 63 65 67
13 12 11 12 10 10 10 11 13 13 16 11 6 13 19 21 20 26 32 29 35 41 40 46 40 30 25 24 25 21 22 20 16 19 17 19 22 18 21 31 33 25 37 47 39 49 42 32 51 54 52 53 58 68 56 51 52 40 36 34 40 43 40 43 46 68 68 42 54 63 57 62 58 58 60 54 55 58 61 59 57 58 56 60 63 65 68 67
13 11 12 11 9 11 9 12 15 13 16 12 11 24 29 28 28 28 28 25 33 45 49 46 36 33 29 22 25 23 26 27 20 21 19 19 24 20 29 43 32 24 48 56 46 54 47 42 60 62 63 63 64 72 54 43 47 45 45 39 42 49 49 53 55 66 63 42 53 62 55 58 58 58 61 62 61 61 64 61 58 58 58 61 64 66 68 67
13 12 12 10 9 10 9 13 16 14 17 14 18 33 35 36 38 34 32 28 31 42 46 39 27 30 31 21 23 24 25 27 25 25 23 22 29 33 36 44 42 35 46 50 40 40 37 43 63 68 64 49 46 60 49 41 48 46 43 38 44 51 45 48 53 58 59 47 50 56 52 54 58 57 56 61 63 59 59 58 58 60 60 63 65 67 68 68
13 12 10 9 9 9 10 13 15 16 20 21 23 31 34 34 33 33 36 33 35 42 38 33 32 32 29 23 22 26 27 30 31 26 24 26 30 38 41 42 40 34 45 57 48 39 38 48 64 68 64 44 33 47 46 35 44 58 51 37 43 47 37 44 53 53 55 51 49 52 50 51 58 62 57 56 56 54 54 52 51 55 57 61 65 69 72 72
13 10 9 10 8 8 10 12 16 19 25 29 28 31 34 32 32 35 35 29 29 39 36 31 35 31 24 23 24 30 33 34 34 28 26 29 30 35 44 45 33 28 50 59 45 42 48 56 58 52 56 55 38 39 45 36 38 55 56 43 44 44 39 45 47 47 50 46 42 43 45 52 62 64 59 57 57 56 59 56 51 53 56 59 65 70 75 75
10 10 10 8 8 9 9 13 16 19 27 35 34 34 31 30 37 38 42 44 31 29 34 27 25 25 23 26 35 39 34 31 31 29 26 29 36 31 30 44 37 30 52 55 42 42 46 54 58 53 55 55 44 38 45 53 45 40 49 55 53 48 46 46 41 45 53 46 42 42 40 49 59 60 60 62 63 62 60 59 55 55 57 60 66 71 74 76
10 10 9 8 10 9 11 18 18 17 24 31 34 35 31 32 37 33 42 54 39 26 30 30 25 23 25 30 40 36 23 26 29 29 31 28 37 34 26 41 39 34 54 46 32 39 42 47 53 57 57 48 41 36 43 61 51 40 55 61 52 45 45 47 39 43 56 49 49 51 42 46 56 58 63 65 65 65 59 57 56 55 60 62 67 74 77 77
10 10 9 10 10 9 16 20 17 21 26 27 31 32 31 32 34 38 42 37 30 27 27 33 27 23 33 36 44 43 30 32 27 26 37 29 31 40 33 38 35 39 56 37 29 48 49 45 45 45 49 45 39 36 48 56 40 44 64 60 53 50 48 53 48 54 66 55 54 60 47 50 61 60 63 64 63 66 63 58 56 56 62 65 69 78 81 80
10 11 9 11 11 11 19 20 17 24 27 26 29 30 31 31 33 45 48 29 23 27 27 30 23 27 48 44 46 54 41 36 33 31 41 30 26 37 37 47 51 48 51 42 44 57 52 52 53 42 38 42 39 44 59 53 35 48 64 57 60 64 61 63 62 65 69 59 61 66 51 50 63 66 65 63 61 66 67 64 60 61 66 68 72 78 79 79
9 11 9 12 13 11 18 23 21 21 25 25 25 29 30 36 50 48 34 26 23 25 31 30 23 38 60 51 48 53 40 40 49 49 49 36 32 41 43 50 59 54 50 51 53 55 56 63 62 52 48 47 42 49 65 59 47 52 56 50 51 59 63 74 84 70 59 69 73 63 51 47 59 69 64 60 64 66 67 68 67 66 70 71 73 77 77 76
9 10 11 15 14 12 18 23 21 22 28 25 26 39 34 41 77 63 22 20 25 26 36 36 39 56 62 51 44 46 46 51 57 57 52 44 37 43 45 41 52 67 61 52 52 56 59 56 54 60 64 55 42 45 60 68 66 56 48 43 40 49 54 63 83 69 54 74 71 57 57 51 56 68 63 64 72 69 64 68 71 70 71 71 72 75 76 75
10 9 15 18 15 15 19 21 23 23 27 30 40 57 49 38 53 46 25 25 21 24 36 37 49 61 57 51 43 44 51 48 55 61 57 57 50 44 49 41 42 58 57 47 47 51 55 52 51 57 60 53 41 39 49 62 64 50 46 53 52 60 61 57 70 65 59 68 58 52 56 49 56 68 70 77 77 69 64 67 71 70 67 67 69 73 75 74
9 11 18 20 15 17 20 20 22 21 28 40 42 53 68 53 26 24 40 36 19 28 43 45 57 61 50 44 43 50 49 35 44 54 49 59 60 49 53 54 47 43 38 39 41 44 54 55 46 42 47 51 41 35 39 44 46 40 47 62 60 58 62 68 71 60 55 58 52 50 50 51 61 65 75 85 77 72 72 70 71 67 63 64 66 70 73 73
9 14 19 18 17 19 21 20 21 24 32 39 32 33 49 45 22 24 42 41 37 45 51 53 60 54 41 38 44 51 43 31 40 47 48 58 58 52 51 51 54 47 38 40 40 41 47 43 35 33 38 46 44 40 39 37 41 46 48 51 53 52 52 62 70 58 54 63 59 48 49 63 67 64 77 83 76 78 77 74 74 67 65 64 63 68 70 72
9 15 19 19 21 22 22 22 24 31 34 39 51 51 36 26 28 35 39 44 53 51 48 55 54 43 42 49 54 48 31 32 45 45 49 56 52 53 49 42 50 51 43 43 41 41 40 35 38 45 46 46 48 51 51 41 37 45 49 42 49 59 51 56 74 67 62 75 77 61 59 69 67 65 74 72 68 73 70 71 73 68 66 64 64 68 67 71
11 16 20 19 22 25 23 23 30 36 37 44 59 56 38 30 29 33 40 44 48 47 49 54 49 42 48 54 59 52 33 35 47 38 38 49 49 49 49 49 53 49 41 40 42 44 44 39 43 49 48 45 47 52 55 48 38 41 48 43 46 52 47 53 68 68 65 72 74 67 65 70 67 66 70 66 64 66 64 66 67 67 66 63 66 68 66 72
15 18 20 20 24 24 20 24 30 34 44 58 59 45 36 35 31 41 59 56 48 50 48 41 35 34 41 47 57 59 42 33 39 35 32 40 42 42 52 56 50 48 47 43 41 41 41 43 47 44 39 44 55 55 51 51 47 45 48 48 47 46 53 62 63 69 78 76 68 67 74 80 75 71 71 68 67 66 64 64 62 64 64 61 63 64 66 71
18 22 22 19 21 21 20 24 25 31 51 68 69 58 46 42 46 60 72 67 55 49 42 35 32 33 38 44 53 61 50 36 39 41 34 34 37 38 49 52 45 58 69 54 40 40 42 45 49 46 40 46 53 46 43 51 50 42 42 46 42 44 63 70 60 67 78 75 77 78 75 76 78 83 82 72 69 66 62 63 62 62 62 61 61 62 65 67
20 30 30 21 19 20 19 20 22 38 53 53 57 57 46 48 63 74 77 69 55 45 42 39 37 41 45 45 52 62 56 41 41 43 33 32 38 38 46 50 45 61 76 59 42 46 48 43 45 49 43 41 43 39 43 54 55 49 47 47 44 51 70 67 54 68 76 71 85 88 76 74 78 86 83 69 66 64 60 63 62 61 62 59 58 60 63 65
21 32 30 18 16 18 16 15 27 50 54 46 55 59 50 54 67 80 89 81 57 41 40 44 43 45 49 48 49 54 55 51 49 46 37 36 38 38 51 59 50 57 68 56 47 50 48 41 47 53 44 38 41 42 43 44 48 56 55 50 46 54 74 70 53 64 70 67 83 91 87 85 76 71 70 66 64 60 59 61 59 60 62 58 55 56 59 64
28 36 29 18 15 16 20 26 43 70 67 50 56 65 66 65 60 72 94 93 73 52 45 50 50 48 52 52 47 49 56 60 58 50 43 42 36 33 54 72 68 63 58 48 48 51 46 44 53 58 50 42 41 44 47 42 44 57 55 48 51 58 71 75 71 75 73 72 85 90 90 89 76 65 62 61 60 57 58 60 59 60 60 57 55 53 56 60
36 34 23 17 13 12 27 43 62 86 79 51 49 64 79 78 61 63 80 79 70 65 58 56 57 58 59 53 48 52 57 60 59 47 41 44 38 36 62 89 92 77 57 47 51 55 57 60 62 60 52 44 43 49 58 55 50 54 52 50 59 63 62 66 78 84 75 73 83 86 87 86 77 70 62 56 57 56 57 60 59 59 58 57 56 53 54 55
43 30 15 15 15 17 32 48 64 79 73 57 57 68 81 84 69 61 68 66 59 58 56 55 52 50 51 51 51 50 48 53 53 43 40 48 48 55 81 100 96 76 55 49 51 52 59 62 60 61 58 50 47 49 56 60 53 47 53 65 66 60 63 72 79 80 76 78 79 80 88 85 73 70 65 59 61 58 58 61 59 58 58 56 55 54 52 54
54 35 27 20 8 15 33 40 46 63 71 63 58 62 70 76 71 59 58 65 64 54 50 53 50 44 48 57 57 51 46 43 40 41 45 45 50 75 102 103 87 67 53 55 59 52 53 58 61 65 67 63 62 63 64 65 61 52 59 76 74 65 74 79 75 75 79 79 75 79 93 87 73 72 67 61 63 59 57 60 58 58 59 56 57 55 54 60
41 25 36 33 16 26 50 58 60 70 76 61 45 50 57 60 70 73 65 67 73 63 52 50 52 53 59 61 58 61 60 44 36 48 53 47 51 76 100 101 87 77 74 83 82 64 55 57 57 60 70 72 69 69 66 59 59 61 63 69 72 71 71 69 73 82 84 82 78 80 86 78 69 74 71 64 64 60 58 59 58 59 59 58 60 58 59 67
26 21 37 49 46 49 63 79 83 72 64 54 41 44 50 45 56 77 75 64 66 66 58 56 58 56 56 57 58 67 70 54 47 54 57 58 56 65 91 105 95 90 96 99 90 72 62 60 57 61 70 69 60 56 56 57 60 65 66 67 74 83 78 72 79 84 82 89 87 76 77 74 65 67 71 68 66 62 60 60 59 59 59 59 62 61 65 69
39 32 34 43 49 57 67 78 83 67 52 52 42 35 49 53 49 59 62 55 61 66 58 59 63 52 48 56 57 59 64 59 55 55 57 66 66 67 85 97 92 91 91 85 78 68 61 59 63 70 68 61 58 52 52 62 65 63 66 68 76 91 83 69 74 74 72 86 86 74 81 83 65 60 67 69 65 63 62 60 59 60 60 61 63 66 70 67
40 32 38 39 33 43 53 55 70 73 61 63 59 43 52 63 54 49 48 49 61 62 44 41 53 55 59 62 51 49 59 58 55 59 61 66 71 71 71 68 72 81 72 63 71 69 59 59 67 79 78 66 63 61 59 67 69 68 75 75 78 91 84 67 72 74 67 74 79 76 83 81 66 63 70 68 64 64 63 60 60 62 63 65 67 70 69 63
39 37 46 48 38 42 51 54 68 74 62 65 67 53 56 60 49 48 51 49 54 54 39 32 39 56 73 72 54 50 58 53 50 61 68 68 69 71 65 55 60 72 63 57 71 71 61 67 78 85 80 66 63 71 70 68 68 70 78 84 86 91 90 80 77 78 74 73 76 79 81 77 69 70 70 64 61 63 62 60 63 66 66 67 70 68 63 58
38 37 40 53 59 63 72 76 74 66 60 62 55 49 64 64 52 56 61 48 37 38 45 44 43 61 81 78 62 53 53 50 47 56 67 71 72 73 66 54 59 75 73 64 70 65 51 64 85 85 72 64 68 74 69 65 71 74 76 85 88 82 83 82 77 76 78 77 76 78 77 73 71 71 67 63 63 65 66 67 69 68 65 66 66 62 58 56
38 38 40 52 58 58 66 72 73 65 56 55 49 47 58 58 57 65 63 55 48 41 46 54 55 68 79 74 69 65 64 66 64 65 69 69 71 70 60 52 59 72 79 77 80 76 61 69 91 86 70 70 69 65 65 66 70 74 74 81 86 79 75 75 73 73 74 74 78 77 71 70 71 70 68 67 68 71 72 73 72 66 62 62 62 59 56 56
37 34 43 55 51 54 64 63 68 69 50 46 58 58 53 60 73 66 43 52 76 71 61 63 60 64 65 58 58 62 66 73 75 77 79 74 72 72 65 63 65 66 76 85 89 92 82 76 86 81 72 77 72 63 66 59 48 56 66 71 79 81 75 73 75 74 68 68 75 74 70 72 73 72 76 76 74 76 75 73 70 64 59 57 56 56 55 53
Wind_Speed
1 2 3 3 3 3 4 6 6 7 7 9 11 10 10 9 9 9 9 10 11 12 13 13 14 14 13 12 13 13 13 10 9 7 5 6 9 11 12 14 13 12 11 9 9 7 7 7 8 11 5 3 4 1 2 3 3 4 3 3 2 4 4 6 7 7 5 1 2 4 5 7 3 2 1 1 3 2 1 3 4 3 1 1 1 3 13 20
0 0 1 1 2 4 5 6 7 8 8 9 11 11 11 9 9 9 9 10 10 11 12 13 13 13 13 13 12 12 12 8 6 4 4 6 10 11 12 13 12 11 10 8 8 7 5 5 7 8 5 1 2 1 1 2 3 3 3 2 4 6 5 6 7 6 3 1 3 3 3 6 5 3 2 2 2 2 1 5 4 4 4 3 5 10 17 20
0 1 1 2 3 4 6 7 8 9 10 10 11 12 11 10 8 8 8 8 9 11 12 13 13 13 13 14 11 10 11 6 4 3 4 7 9 11 12 12 9 10 10 7 6 5 2 2 3 4 4 1 1 1 2 1 0 2 4 2 6 6 5 4 5 6 4 2 3 2 2 3 4 2 1 3 3 2 4 6 2 5 9 3 4 10 16 17
1 1 2 3 4 5 6 7 9 10 11 11 11 12 12 10 8 7 7 7 9 11 13 13 13 13 13 13 11 8 7 6 2 2 5 8 9 10 12 10 8 10 11 6 5 3 2 1 3 4 3 0 3 2 0 1 0 2 4 5 5 4 3 4 6 6 4 2 4 4 3 1 4 1 1 2 2 5 5 7 8 9 9 6 5 9 14 15
2 2 3 4 5 6 8 8 9 10 10 11 11 12 11 9 7 6 7 7 9 11 12 13 13 12 13 13 10 7 5 5 2 2 6 8 9 10 11 9 8 11 10 5 4 2 2 3 5 5 3 1 2 2 1 1 2 2 3 5 5 4 1 2 4 4 3 4 4 5 3 2 1 1 2 5 4 6 5 4 8 9 5 7 8 10 12 12
4 4 4 5 6 7 8 8 9 10 10 11 11 11 10 9 7 7 7 8 10 11 12 13 12 12 12 11 8 4 3 1 2 3 7 8 9 10 10 9 9 10 6 2 3 2 2 4 3 2 3 0 2 2 3 2 1 2 3 2 3 4 1 1 2 2 4 6 4 4 3 1 3 2 1 5 9 8 4 1 2 5 3 8 11 11 10 9
6 6 6 7 8 8 9 9 10 10 11 11 11 11 10 9 7 7 8 9 10 11 12 12 11 12 11 8 4 3 3 1 3 4 7 9 9 10 9 8 8 8 4 3 5 2 2 4 1 3 3 1 3 3 2 3 2 2 3 2 2 3 1 0 1 2 4 4 3 3 1 2 2 2 1 3 10 7 5 2 2 2 4 10 10 9 10 11
8 8 8 8 9 9 10 10 11 12 12 12 12 12 11 10 8 8 9 10 11 11 11 11 11 11 11 6 1 3 2 2 3 5 7 9 9 10 8 7 8 6 4 7 6 0 2 2 1 4 3 2 4 3 0 2 3 2 3 2 1 2 2 0 3 3 2 1 1 2 1 1 3 1 1 6 7 8 8 3 3 6 7 8 8 8 7 7
9 9 9 9 10 10 11 11 12 12 12 13 13 13 12 11 10 9 9 10 10 11 11 11 10 11 11 5 4 4 3 1 5 6 8 10 9 9 6 7 9 7 5 8 7 2 1 1 2 3 3 2 4 3 1 1 2 3 3 1 1 1 4 1 3 3 1 0 2 2 2 3 3 1 2 7 5 8 6 4 4 6 7 5 4 3 3 4
8 9 10 10 10 11 12 12 13 12 13 13 13 13 12 12 11 10 9 9 9 10 11 12 10 10 9 4 5 3 2 3 6 6 9 11 10 7 5 8 10 9 6 7 9 7 2 2 2 3 4 2 3 1 1 2 2 2 3 2 2 2 4 2 1 2 2 1 2 2 4 3 3 1 3 5 5 7 6 8 6 6 6 5 5 5 6 6
9 9 10 11 11 11 12 13 13 14 14 14 13 13 12 12 11 10 10 9 9 9 11 12 11 9 6 4 4 1 3 5 6 8 11 11 10 7 6 8 9 9 7 6 7 6 3 3 5 4 1 1 2 1 1 2 2 2 2 1 3 5 3 3 2 3 2 0 4 4 3 3 4 1 3 7 7 6 7 8 8 8 6 6 7 6 6 6
9 10 11 11 11 11 13 14 15 16 16 15 14 13 13 12 11 11 10 9 9 10 12 13 13 8 4 4 2 4 4 5 6 9 11 11 11 7 4 7 9 8 5 5 4 4 5 1 6 4 1 1 1 1 0 1 2 1 2 1 6 8 4 3 3 3 1 1 4 3 2 5 4 2 3 8 8 5 9 9 8 7 6 7 7 6 7 8
9 10 11 10 11 12 14 16 17 17 17 16 15 14 14 13 12 11 10 9 9 10 13 14 12 5 2 3 2 1 4 5 7 10 11 11 11 6 2 7 10 6 4 3 2 5 6 2 7 5 1 3 1 1 2 3 3 1 2 2 4 7 5 4 2 1 1 1 2 1 2 5 4 4 5 9 7 5 9 8 7 7 6 7 7 8 8 11
10 11 10 10 11 13 15 17 17 17 17 16 15 15 14 14 13 12 11 10 10 11 13 13 9 2 1 2 1 3 4 4 8 14 14 13 12 6 2 8 9 4 3 2 3 5 6 5 9 6 2 3 1 1 4 5 3 1 1 2 2 2 4 4 2 1 2 1 1 2 2 6 5 5 9 10 6 5 8 7 7 7 7 7 8 10 10 12
11 11 10 10 12 14 16 17 17 16 16 16 16 15 15 14 13 12 11 11 11 12 12 9 4 1 2 2 1 4 5 4 10 18 15 14 14 7 7 12 8 2 2 1 4 6 6 5 7 5 1 1 2 3 3 4 4 3 1 3 2 1 5 6 2 1 2 0 3 4 2 6 3 5 9 9 5 8 9 6 7 7 8 9 8 10 10 11
10 9 8 10 13 15 17 17 16 15 15 16 16 16 15 13 12 11 10 10 11 11 8 4 1 2 3 2 2 4 4 5 13 17 11 12 13 8 12 13 5 3 2 2 5 5 6 6 5 2 1 1 4 4 3 4 4 3 0 3 2 1 3 5 2 2 1 1 3 2 3 4 0 4 9 8 6 9 10 7 8 8 8 9 8 9 9 10
9 7 8 11 14 16 17 17 16 15 15 16 17 16 12 10 9 7 5 7 7 5 2 1 1 2 2 2 3 4 5 9 15 13 8 12 12 9 11 7 3 5 3 4 3 2 5 5 1 0 2 3 2 4 4 4 4 4 2 1 3 2 2 4 2 3 4 1 2 2 2 4 2 6 9 9 6 9 10 7 7 7 7 8 8 9 9 10
8 7 9 12 15 17 17 16 16 16 16 17 18 14 7 5 4 3 5 5 3 1 3 2 3 3 1 4 2 6 11 14 15 9 9 14 11 8 7 3 3 5 4 4 3 2 3 3 2 1 3 3 2 5 1 4 3 2 2 1 3 2 2 4 4 2 4 2 2 2 4 6 6 9 9 8 6 9 9 7 7 7 7 7 8 9 9 10
7 8 11 14 16 17 17 16 16 17 17 18 17 9 3 4 3 4 7 8 2 1 1 2 3 1 4 5 4 10 14 11 8 7 12 16 10 5 4 3 3 3 3 1 2 2 2 2 3 1 1 2 2 5 6 7 5 3 3 3 3 4 3 5 5 3 1 1 3 4 3 4 8 9 8 7 6 8 8 7 7 6 7 7 8 8 9 10
7 9 12 14 16 16 17 16 15 18 17 19 17 6 3 5 3 2 6 7 3 2 1 2 0 1 4 4 7 13 11 4 2 7 15 17 9 4 2 4 5 5 3 1 2 2 2 2 1 4 5 5 5 5 4 4 4 2 2 3 3 4 5 5 3 4 1 1 4 2 2 5 7 7 6 6 6 9 7 7 7 6 7 7 8 9 9 9
7 10 13 15 16 16 17 15 13 17 16 17 16 6 2 2 2 4 5 4 1 2 1 3 3 2 5 5 7 10 5 2 2 7 17 16 6 3 3 4 5 4 2 1 2 2 3 0 4 5 5 4 2 3 4 4 3 2 2 2 2 3 5 4 1 5 2 1 3 1 4 5 5 5 6 6 7 7 5 6 7 7 7 7 9 9 8 7
8 11 13 15 16 16 17 14 11 14 15 14 13 7 4 3 3 1 1 2 3 1 1 3 1 3 5 3 5 6 2 4 4 6 18 17 6 3 3 4 4 2 3 2 2 4 3 3 5 2 2 3 4 3 4 3 2 2 1 1 3 3 3 4 2 4 2 1 4 2 4 3 4 5 6 7 5 5 5 6 6 6 7 6 7 8 8 8
9 12 14 15 15 16 17 13 9 13 14 12 10 6 3 3 3 1 2 1 4 3 2 2 2 4 5 2 4 6 3 3 3 5 15 14 5 3 2 5 3 1 4 3 1 0 2 3 3 0 3 4 3 3 4 3 2 1 1 1 3 3 1 3 4 4 2 0 2 1 4 2 3 5 6 6 4 5 6 7 7 6 6 6 6 6 7 8
10 13 13 14 15 15 16 12 8 11 12 9 9 6 3 2 2 1 2 2 3 4 1 0 1 1 3 2 5 6 2 1 2 5 11 9 2 2 2 3 2 2 3 2 4 4 4 3 0 2 3 3 0 3 3 2 3 3 3 3 4 3 2 4 3 4 3 3 1 2 3 2 2 4 5 5 5 6 6 7 8 6 5 6 6 6 6 7
11 13 12 13 14 14 15 9 6 11 8 5 7 5 2 0 2 2 2 2 2 3 1 0 1 1 2 3 6 4 0 0 2 4 7 6 2 2 2 1 1 2 2 0 2 2 4 3 0 2 4 4 2 2 1 4 2 4 3 4 5 2 2 2 3 5 4 4 1 2 2 4 2 3 3 3 5 5 5 6 7 6 5 6 6 6 6 7
11 12 12 13 13 15 13 5 6 11 6 3 6 4 0 1 2 2 2 4 1 3 3 1 1 3 5 4 5 2 1 2 2 2 5 5 2 1 1 2 1 2 2 2 1 1 2 3 2 3 3 5 3 2 3 4 3 2 2 3 4 4 2 1 3 3 1 2 3 2 1 4 3 1 3 3 5 4 4 5 5 5 5 5 5 5 5 6
11 12 12 14 14 14 9 2 6 8 3 3 7 5 2 2 1 1 2 5 2 1 2 2 1 3 5 5 4 2 1 4 2 2 4 5 4 1 1 3 1 1 1 1 2 0 0 3 5 4 5 4 3 2 2 5 4 2 2 3 3 2 1 1 1 1 2 2 3 1 2 2 4 2 3 5 5 3 3 4 4 4 5 5 5 5 5 5
11 12 13 14 14 13 7 3 5 4 2 5 6 3 1 2 1 2 5 4 2 1 0 3 1 2 5 6 5 4 1 5 2 2 4 6 5 3 2 1 2 1 2 1 2 3 0 2 2 2 4 3 1 2 2 3 1 3 3 2 1 1 1 2 4 2 1 3 4 3 2 2 5 1 2 4 4 3 3 2 2 4 5 5 5 5 5 5
11 12 12 13 12 11 8 5 5 5 4 4 3 2 1 1 1 3 5 2 1 1 1 1 1 2 7 6 5 4 2 3 2 4 6 5 4 4 2 1 4 2 2 1 3 3 0 1 2 2 2 1 2 3 2 3 1 2 3 2 2 4 3 3 4 3 3 2 4 5 1 2 3 1 3 3 3 5 5 3 2 2 5 4 5 5 5 5
11 11 12 12 10 10 7 4 7 7 5 4 3 1 1 1 4 5 3 1 1 2 1 2 2 3 8 7 5 6 4 3 3 5 5 2 4 6 3 1 4 5 2 4 2 2 2 1 2 2 1 1 1 1 2 3 1 1 2 2 4 4 4 3 2 4 3 2 5 5 2 2 2 3 5 4 2 5 6 4 3 1 5 4 4 4 4 4
11 10 11 10 9 10 6 4 8 9 7 6 3 0 1 2 4 6 1 2 1 3 3 4 3 4 7 5 4 6 5 5 6 6 6 4 6 8 4 3 4 4 4 5 2 3 4 3 1 1 0 1 2 2 1 1 2 2 2 3 3 4 3 4 4 3 3 3 5 4 1 2 1 3 3 2 5 3 9 6 4 4 4 4 4 4 3 3
10 9 9 8 9 10 7 5 8 9 9 6 1 3 4 2 3 2 2 4 2 3 3 2 3 4 5 3 2 5 4 5 5 5 3 3 5 5 4 3 2 4 5 3 4 5 3 1 2 2 1 2 3 3 4 4 4 4 3 4 4 4 4 3 3 2 2 4 3 0 2 1 3 2 2 6 7 1 7 6 6 6 4 4 4 3 3 3
8 7 6 7 9 11 10 8 9 10 9 3 2 4 6 5 1 2 3 3 2 2 1 1 3 4 3 3 4 5 3 3 5 4 1 1 4 3 3 1 1 3 2 1 3 5 4 4 4 3 2 2 2 2 3 3 4 4 1 3 3 2 3 4 3 2 3 4 2 1 2 2 2 1 3 6 6 2 6 7 6 6 5 4 4 3 3 2
5 4 5 7 10 12 13 11 11 11 7 2 3 4 6 4 1 1 3 3 2 3 2 1 5 4 3 3 4 4 2 2 4 5 3 3 4 3 4 4 4 3 1 1 2 2 2 4 3 2 1 2 2 1 1 1 2 2 2 4 3 2 1 4 3 2 5 4 4 3 1 2 2 2 4 4 4 5 7 7 6 5 4 3 4 3 2 2
4 2 4 8 11 14 16 14 12 11 4 3 5 5 5 0 3 0 2 4 2 4 3 1 3 4 4 3 3 2 1 2 4 5 4 3 2 1 2 4 5 3 2 2 2 0 1 4 4 1 1 1 2 1 2 3 2 1 2 3 1 2 3 2 3 3 2 3 3 2 2 2 1 2 4 4 5 7 7 6 6 4 3 3 3 2 1 0
3 1 3 7 11 16 19 16 13 9 2 5 7 5 2 2 2 2 2 2 1 3 5 5 4 4 4 4 4 4 1 2 3 3 3 2 1 1 1 2 2 3 3 1 1 1 1 5 4 2 2 2 2 1 1 2 0 0 1 0 2 3 4 1 2 1 2 1 3 1 1 1 1 1 2 4 6 5 5 4 4 3 2 3 2 1 1 2
3 1 0 6 12 18 20 16 11 5 3 6 6 2 2 1 1 1 1 1 1 1 3 4 3 3 3 3 4 5 4 2 2 3 2 1 0 1 1 2 0 2 1 0 1 1 1 4 5 2 0 1 1 1 3 2 1 2 1 3 2 1 4 3 1 3 4 1 3 1 1 3 1 1 1 1 2 2 2 2 2 2 2 3 1 2 3 3
3 1 1 5 15 20 18 13 7 3 6 7 4 2 1 0 0 1 1 0 1 0 4 2 1 1 0 1 3 5 5 3 3 3 1 2 1 2 1 2 1 2 2 2 1 1 2 3 7 2 1 3 2 3 3 3 1 2 1 2 2 1 1 2 1 1 2 2 4 4 2 2 2 3 4 6 6 4 3 2 2 1 1 1 2 3 3 3
2 1 0 7 19 21 13 7 4 5 7 6 2 1 0 1 1 2 2 0 1 1 2 1 1 2 0 1 2 4 3 2 3 3 1 1 2 2 2 1 1 2 3 2 1 1 1 0 5 3 2 3 4 3 2 4 4 3 1 2 2 3 3 0 1 1 1 2 3 4 4 2 3 3 6 9 7 6 4 3 2 2 2 2 3 3 3 3
2 2 1 10 22 16 6 7 8 7 6 3 3 2 0 1 2 2 1 1 0 1 1 2 1 2 2 1 1 2 2 1 1 1 0 1 2 2 3 1 1 3 4 3 2 1 1 1 3 5 3 3 3 1 0 2 2 2 3 3 3 1 0 0 0 1 1 1 2 2 4 4 3 1 5 7 5 5 5 4 3 3 3 3 3 3 3 4
3 3 2 14 23 9 4 9 8 5 4 3 1 1 1 1 1 3 3 2 1 0 1 2 2 0 1 2 2 1 1 2 1 1 1 1 1 2 2 1 0 2 3 3 3 1 1 1 2 4 5 3 3 3 2 3 3 2 1 1 1 0 3 2 2 2 1 2 3 1 4 6 2 1 1 4 4 3 4 4 3 3 3 4 3 3 4 4
5 3 3 17 19 4 7 7 2 2 3 2 2 0 1 2 1 2 2 1 1 0 1 2 1 1 1 1 1 1 1 2 1 1 1 2 0 0 2 2 0 1 1 2 2 1 1 2 0 4 5 4 6 4 1 1 3 4 2 2 3 2 3 3 3 3 1 1 2 2 1 5 3 1 1 4 4 3 4 4 2 3 4 4 4 4 4 5
3 1 4 19 14 3 8 6 2 4 3 1 1 0 0 1 0 1 1 1 1 1 2 1 0 1 0 0 1 0 1 2 2 1 1 2 1 1 1 2 2 1 1 1 2 1 1 2 1 4 5 4 5 4 2 2 3 4 2 2 2 1 2 4 5 3 1 3 1 2 2 5 2 1 2 3 2 2 2 2 2 3 4 4 5 5 5 5
2 3 3 17 14 4 5 4 2 2 2 2 2 2 2 1 1 1 1 2 2 1 1 1 0 1 1 1 1 1 1 1 1 1 0 1 1 0 1 2 2 1 1 0 1 2 1 1 1 3 5 6 6 5 5 5 3 2 1 1 1 2 4 2 1 2 0 4 3 3 3 4 2 1 1 1 1 1 2 3 3 4 4 5 5 5 5 6
3 0 3 13 18 10 4 3 5 4 0 1 3 3 3 1 0 1 0 0 1 1 1 1 0 0 0 0 0 1 1 1 2 2 2 1 2 1 2 2 2 1 1 2 2 1 1 1 1 2 1 3 4 4 4 3 3 2 1 2 2 2 3 2 1 2 0 3 2 4 4 4 1 1 2 3 2 2 4 3 3 4 4 5 5 5 5 4
2 2 3 7 12 10 3 1 4 4 3 2 3 2 2 2 1 1 1 0 1 0 0 1 1 0 1 3 3 3 2 1 2 2 2 2 3 2 1 2 1 1 2 1 2 2 2 1 1 3 5 4 5 6 3 1 3 4 5 6 3 2 2 3 3 1 3 1 1 3 3 3 5 3 2 3 2 3 5 5 5 5 5 6 6 5 4 4
2 2 1 2 4 5 4 4 5 3 2 3 2 2 2 3 3 1 1 1 0 0 0 0 1 2 2 3 3 2 3 2 1 1 1 2 3 3 2 0 1 2 2 1 1 3 3 2 2 2 5 7 7 8 5 2 3 5 5 6 2 3 3 4 2 4 3 2 3 4 0 4 8 6 4 3 4 4 6 6 6 7 7 7 6 5 4 4
3 2 1 0 1 2 3 3 3 5 4 3 2 1 3 3 3 1 1 1 1 1 1 1 3 3 0 1 1 2 4 4 3 2 1 1 3 4 4 1 1 4 2 2 2 3 4 1 2 0 5 8 6 7 5 2 3 3 3 5 3 4 1 3 4 5 2 1 5 4 2 6 8 5 4 4 5 6 6 6 7 7 8 7 6 5 5 4
3 3 0 2 2 3 0 2 2 5 5 4 3 2 2 3 4 2 2 2 3 2 2 2 4 4 1 2 1 1 3 3 4 4 1 1 3 2 3 2 2 3 3 3 3 1 3 2 2 0 6 8 5 5 3 1 3 2 1 2 2 2 2 4 4 4 3 4 5 5 7 8 5 2 3 4 5 5 5 6 7 8 9 8 6 4 5 6
2 3 1 3 4 2 1 2 2 4 4 3 3 2 1 1 3 3 1 1 2 3 3 2 6 6 1 2 3 2 4 3 4 5 2 1 3 1 0 1 1 4 5 3 2 2 1 2 1 2 4 8 5 4 4 2 2 3 3 3 3 3 1 1 1 1 1 4 5 6 7 7 2 1 3 5 5 5 7 9 8 8 9 8 6 6 7 8
3 3 3 5 4 3 3 2 3 4 3 3 2 1 1 1 1 2 2 1 1 2 1 1 5 5 1 2 2 5 6 4 5 7 5 2 3 3 2 1 1 3 5 2 2 4 2 1 2 5 4 6 4 6 9 5 3 2 4 5 4 3 2 1 2 1 1 5 7 7 6 4 2 3 5 5 5 8 10 9 9 10 8 6 6 7 8 8
4 3 2 5 3 3 3 2 3 4 2 2 1 1 2 2 2 1 1 1 0 1 2 2 1 2 3 3 2 5 5 5 6 5 4 3 2 2 1 0 2 1 1 1 2 2 2 2 1 3 2 6 5 7 10 6 5 3 3 3 3 2 2 2 3 4 4 2 4 5 4 2 2 5 8 8 9 10 9 8 10 10 6 4 6 8 8 9
Wind_Direction
54 50 42 36 26 17 13 9 8 2 360 1 4 0 352 347 341 339 334 336 337 337 339 337 339 339 338 335 335 338 329 318 312 328 6 358 339 335 333 332 334 337 340 339 346 353 356 3 359 6 38 87 18 345 29 28 59 56 90 135 219 196 199 192 184 195 182 237 224 205 186 166 213 241 199 65 40 1 279 286 277 288 12 88 9 114 148 154
137 91 10 360 348 352 356 359 2 358 353 351 358 358 353 348 341 340 336 339 342 342 342 339 341 340 341 338 334 344 343 334 332 360 25 348 338 336 332 335 339 343 343 342 355 15 22 346 341 12 43 68 354 12 42 4 67 92 121 155 226 200 211 202 177 189 177 146 187 204 189 178 202 183 141 210 285 354 242 275 307 289 275 67 75 130 148 155
110 252 286 316 326 340 345 349 354 352 350 347 349 350 347 344 339 341 340 344 348 347 345 342 342 340 343 340 335 342 347 357 3 13 10 347 341 335 334 336 339 348 343 336 347 9 26 327 340 25 47 65 329 22 61 20 50 156 129 190 241 213 225 230 185 191 200 159 148 187 158 179 234 194 141 210 260 287 213 241 235 253 249 191 113 142 151 157
23 338 324 332 335 340 341 342 346 347 348 346 342 342 339 336 334 335 340 346 349 351 348 346 344 342 342 340 335 329 343 20 6 331 1 351 343 336 336 330 326 339 335 326 333 344 6 58 63 49 67 313 327 11 118 283 336 158 146 198 230 194 217 234 196 194 194 149 138 146 115 198 248 195 130 156 289 290 243 233 208 225 234 184 161 161 158 161
20 358 345 341 341 340 341 341 344 347 346 342 338 335 335 333 327 325 330 335 340 346 348 348 347 345 343 338 333 321 357 32 315 326 360 353 347 337 336 330 317 327 328 321 333 3 49 69 68 49 61 235 328 25 239 265 97 152 208 204 189 161 203 244 189 177 145 109 99 117 136 216 214 112 152 155 225 256 236 246 217 225 225 168 169 169 163 166
34 16 3 355 352 348 348 348 346 346 341 337 336 335 337 333 323 316 317 322 329 336 342 346 349 349 346 340 335 344 41 27 291 354 353 354 352 339 340 335 325 329 331 328 351 41 65 44 58 62 50 33 203 191 232 323 85 193 275 244 196 192 170 342 171 172 131 109 117 152 192 104 64 311 159 170 227 235 225 296 226 250 230 158 156 157 164 175
35 25 18 10 5 1 356 351 346 343 338 336 336 338 338 334 327 316 315 320 323 329 336 339 345 349 350 346 337 27 62 260 317 358 349 359 352 343 348 344 344 342 355 19 4 48 88 39 45 169 93 18 216 198 233 336 34 154 263 279 202 199 184 359 105 138 131 117 175 179 133 93 112 278 36 238 250 267 281 303 57 43 117 136 142 159 178 183
27 23 18 12 7 2 355 350 346 342 339 337 337 338 336 334 328 318 318 319 321 328 332 334 337 345 351 355 8 18 12 268 337 352 350 359 353 353 354 355 6 2 40 35 11 182 132 59 212 171 116 250 194 164 201 351 15 148 231 273 132 184 270 313 97 92 121 110 90 111 72 233 211 154 11 274 287 317 301 296 79 92 101 121 144 172 181 175
17 15 10 7 3 358 353 349 345 341 338 337 336 336 335 333 326 319 318 317 321 327 333 336 333 341 348 3 73 17 310 306 353 346 348 353 355 359 354 10 22 23 55 43 33 65 122 143 207 181 166 217 169 155 329 281 279 205 193 252 125 347 325 39 108 62 48 342 90 110 308 283 229 141 274 267 312 328 330 31 51 99 100 99 121 135 99 110
8 5 2 358 354 352 350 348 345 340 337 334 332 332 332 329 322 317 315 316 319 326 337 338 331 339 344 7 55 7 286 7 356 345 349 348 349 348 353 16 23 33 62 57 48 60 72 192 188 149 143 128 141 148 314 192 211 166 139 140 114 356 324 59 62 347 19 306 132 170 270 288 261 255 258 266 336 348 26 40 21 70 79 62 60 56 77 88
3 360 357 353 352 350 349 346 342 338 334 330 327 325 325 325 321 314 312 312 312 321 333 337 337 337 342 40 82 248 293 10 358 357 353 343 344 343 360 13 14 30 59 70 57 59 51 193 168 124 127 162 135 52 329 195 117 101 112 111 347 352 332 48 19 297 3 244 168 169 236 304 344 70 247 294 334 7 55 43 30 57 51 52 61 55 66 64
2 358 356 353 353 351 348 344 339 336 331 328 323 318 317 316 316 312 309 309 304 311 321 331 337 329 346 46 141 230 313 6 6 3 356 349 351 344 3 10 1 12 38 68 62 50 38 169 147 105 294 186 136 13 145 123 80 28 61 351 314 356 1 353 346 281 338 184 181 157 277 319 339 192 271 320 330 18 58 46 40 59 51 56 64 56 48 48
1 360 358 356 356 352 348 344 341 336 331 330 324 318 313 308 310 309 307 309 304 305 312 323 330 327 24 5 241 265 344 10 9 357 351 355 358 351 12 3 352 348 1 49 71 49 42 94 127 112 122 104 90 230 102 52 49 289 40 54 318 357 349 321 5 290 188 177 207 159 292 295 279 259 312 337 334 20 51 43 43 57 59 62 65 66 57 52
359 360 359 360 359 355 351 347 343 338 335 334 328 321 314 307 305 303 303 307 307 304 309 319 323 345 68 284 267 24 355 3 1 352 350 351 357 2 3 354 349 333 341 48 96 58 62 101 104 98 82 84 143 100 45 12 20 346 360 41 5 351 291 305 8 117 157 152 4 127 234 267 267 314 334 337 343 66 69 46 53 62 65 69 69 73 68 59
355 356 360 2 359 356 353 348 344 340 340 336 329 324 317 311 304 302 303 303 305 305 310 319 314 36 46 300 337 8 343 355 352 350 350 347 353 353 331 339 347 5 7 88 107 77 84 103 84 77 44 11 60 67 18 352 15 29 320 306 349 178 267 311 360 103 163 327 31 107 227 271 269 337 339 342 11 86 86 59 68 74 75 79 79 80 80 71
351 353 359 0 357 356 352 348 344 340 342 338 332 326 317 310 302 299 301 302 305 304 313 332 299 83 63 312 339 1 355 350 341 343 347 348 350 336 325 332 350 30 25 117 120 93 67 69 69 75 140 43 63 77 31 1 346 358 44 259 278 183 287 322 6 360 355 276 350 71 234 265 51 350 344 1 34 86 93 81 80 81 82 85 84 84 85 80
350 353 357 358 356 355 352 348 343 340 344 341 335 332 325 319 311 303 313 321 315 313 351 30 299 86 69 331 351 348 331 323 330 341 355 353 347 333 332 337 7 8 37 93 109 102 35 45 96 342 56 55 76 84 34 337 302 323 22 256 256 205 259 307 313 346 24 81 292 349 242 249 1 359 353 4 34 90 98 98 94 90 85 81 83 85 83 83
351 355 356 356 354 354 352 346 342 342 345 345 340 338 344 351 1 47 22 359 330 35 74 35 22 72 306 338 354 305 308 314 326 348 360 352 348 344 353 15 355 355 32 48 38 50 11 32 86 28 17 7 51 94 122 241 229 268 264 254 290 278 236 266 274 308 20 46 255 304 273 275 345 360 358 360 28 89 98 100 99 88 82 80 82 86 85 82
352 356 355 354 353 352 349 342 343 347 348 353 350 344 6 15 59 82 34 32 51 53 29 314 10 73 272 308 305 308 313 314 332 1 358 352 347 347 12 25 9 34 56 357 341 12 21 47 61 61 289 281 199 160 199 213 183 197 217 187 232 268 260 246 252 277 352 44 265 263 275 320 350 354 359 358 31 84 91 90 89 78 77 82 84 87 87 81
354 355 352 351 350 347 346 341 345 353 354 358 358 359 28 14 20 358 7 35 83 122 47 263 240 278 299 310 314 331 335 331 28 17 3 354 343 344 3 11 22 49 69 216 286 1 66 59 260 229 229 235 224 206 197 178 144 121 155 173 222 239 272 268 270 307 311 167 279 249 76 13 356 349 357 3 45 69 74 81 80 75 79 86 92 92 86 82
353 351 349 348 346 344 345 339 344 358 358 1 11 35 84 45 27 325 328 358 281 145 30 259 210 260 286 289 316 342 354 356 5 12 7 357 346 348 325 17 37 21 1 236 272 358 60 20 245 229 228 229 216 172 132 110 94 68 172 217 282 230 256 275 276 314 319 165 289 40 74 18 359 356 0 19 54 54 50 76 77 80 87 89 95 94 89 87
347 347 346 345 345 342 344 341 342 355 357 7 30 66 107 118 130 250 296 334 295 248 330 288 303 304 287 280 330 351 37 12 340 350 3 360 9 6 320 44 63 292 340 5 327 360 12 258 253 243 171 119 75 100 100 85 98 79 146 188 304 261 277 306 329 327 347 151 278 360 73 33 7 27 32 30 53 51 38 68 72 81 92 93 99 99 97 91
341 343 344 343 344 342 344 345 338 350 2 23 45 74 100 104 134 158 94 81 301 310 6 8 24 326 322 354 360 1 40 32 318 320 356 1 16 30 31 53 50 306 1 11 172 346 312 266 266 137 127 107 51 44 68 52 56 129 181 226 274 282 325 287 311 324 333 91 243 77 72 65 11 42 52 31 49 69 49 61 61 66 87 96 99 96 97 96
336 340 342 342 344 342 344 342 339 356 12 42 54 67 106 113 144 123 74 88 317 310 314 35 145 277 312 323 353 5 53 53 280 310 354 11 19 8 69 73 45 45 360 18 142 175 247 256 220 75 75 106 182 349 58 86 333 293 205 200 237 267 234 226 286 320 325 356 117 110 26 360 23 54 66 32 46 61 43 56 56 47 64 85 88 77 80 91
335 338 341 344 344 343 342 340 355 4 8 50 49 51 99 155 213 156 79 74 328 309 316 247 149 11 297 314 348 350 193 327 258 284 345 19 19 343 32 113 53 25 275 71 95 244 277 286 240 75 47 65 111 308 270 170 292 308 236 211 213 205 206 229 334 354 12 349 342 82 347 304 1 76 103 58 53 47 24 47 55 40 49 73 85 81 79 83
334 336 342 344 343 343 342 345 0 355 2 50 19 359 212 233 228 179 82 61 14 312 348 325 158 353 334 340 343 338 65 345 275 292 354 19 15 122 44 297 21 38 210 173 36 259 298 357 41 104 88 59 59 300 252 156 117 312 261 191 168 128 100 16 4 12 42 284 304 62 185 269 313 144 157 111 78 54 30 44 49 43 51 67 82 87 86 85
333 336 342 343 343 347 348 342 345 350 16 1 344 337 240 217 202 178 57 39 8 310 352 309 305 8 341 328 342 70 55 310 319 19 14 10 346 83 38 312 345 8 213 113 12 283 309 1 24 59 75 55 34 321 249 133 114 261 241 128 124 102 288 246 111 161 228 265 308 15 140 244 288 248 164 124 101 72 56 51 39 43 52 63 74 77 78 82
335 337 342 345 345 352 1 1 355 15 27 325 334 358 203 200 176 100 80 60 335 359 33 295 308 12 334 333 11 72 281 307 29 349 347 23 4 17 34 288 174 280 336 87 268 272 7 6 14 60 61 46 299 272 207 130 101 258 207 144 144 96 202 149 127 163 338 10 313 306 116 201 273 277 115 125 130 161 180 157 61 49 46 58 70 71 72 74
336 337 342 346 346 351 360 15 24 25 358 335 351 15 181 177 36 61 78 103 301 17 176 306 359 329 341 358 11 24 349 354 44 312 336 36 22 29 67 196 139 143 325 76 207 244 357 230 207 138 73 338 261 271 182 151 290 234 156 125 65 61 61 73 97 116 50 29 266 275 181 188 265 231 155 163 181 197 193 195 201 52 39 54 70 72 76 74
334 336 342 346 350 352 353 17 21 9 351 344 333 309 166 72 55 65 49 259 320 328 258 26 13 327 3 20 347 352 20 357 331 329 350 22 358 23 81 181 101 116 341 21 117 233 316 274 194 107 83 208 231 291 166 168 258 177 105 27 28 38 40 44 65 94 60 310 253 261 239 159 290 242 179 175 218 188 165 176 209 68 43 53 69 76 83 82
329 335 343 350 1 2 359 357 359 357 349 340 318 186 111 26 61 87 50 282 322 333 2 18 348 3 29 37 335 344 11 335 334 11 11 1 359 10 32 21 41 59 7 9 3 320 4 28 283 321 327 136 59 19 96 75 27 79 63 23 8 352 20 26 354 47 77 270 262 264 236 148 232 260 207 295 314 187 160 163 165 114 65 65 76 77 82 81
328 336 346 359 11 13 12 350 347 353 348 341 28 86 82 34 28 89 283 318 345 337 4 336 319 5 10 14 350 334 340 336 360 48 34 15 32 21 25 25 9 19 6 344 329 341 3 326 303 329 347 67 48 2 354 13 32 42 42 50 30 347 4 4 324 343 197 242 256 91 66 161 222 240 305 317 323 163 142 133 133 121 92 81 81 79 78 73
329 338 356 9 13 13 11 356 350 353 346 351 105 57 71 76 17 238 276 324 354 329 347 285 311 339 333 356 358 328 335 349 360 37 62 66 63 30 354 4 66 35 355 309 342 354 339 303 330 9 344 37 73 22 338 333 7 11 41 92 70 32 7 311 282 304 280 265 271 342 32 290 251 28 346 321 329 64 103 99 108 108 97 85 75 82 83 69
336 352 21 18 12 8 4 358 352 348 346 55 91 46 62 67 270 258 302 281 282 328 350 328 320 339 24 33 343 326 16 355 349 19 9 25 48 11 335 345 17 47 67 33 13 30 11 307 316 32 327 10 51 107 159 162 14 348 171 126 111 144 162 271 238 244 283 286 297 300 300 243 257 358 347 342 13 57 80 91 97 91 86 76 63 68 75 60
341 29 46 22 12 7 1 354 347 346 352 79 64 59 82 102 261 226 283 265 298 328 316 333 357 13 15 349 327 353 53 310 343 30 22 32 64 3 341 329 343 26 76 42 323 126 60 271 267 316 303 57 41 270 114 82 43 291 164 98 62 182 163 227 207 191 252 313 314 276 205 191 166 19 4 33 53 59 71 86 91 87 86 85 70 56 66 120
335 110 53 19 10 3 358 350 343 346 14 89 61 55 135 205 236 164 228 280 345 315 320 351 31 35 348 318 330 359 17 281 336 24 25 46 162 251 328 274 308 20 62 93 274 344 15 279 282 346 339 70 90 236 37 38 327 91 67 293 245 182 131 119 281 352 58 8 295 242 181 304 38 49 4 43 59 61 74 88 98 106 90 77 67 359 261 238
340 181 357 6 3 355 350 345 342 356 65 83 79 96 207 204 147 173 242 327 285 270 19 16 13 19 340 312 311 325 341 323 341 20 10 359 191 215 327 287 254 39 19 156 253 244 150 277 302 27 51 317 110 114 30 22 133 71 359 235 213 104 92 100 318 353 24 295 276 328 249 277 317 256 270 95 101 104 120 124 114 95 58 55 21 278 252 246
345 199 232 359 356 348 343 345 349 61 76 67 80 140 197 354 62 211 216 354 239 38 62 59 322 20 109 278 292 304 337 348 349 15 13 329 359 134 97 330 35 65 353 347 305 286 109 285 305 354 177 296 357 79 17 343 32 67 232 216 106 87 342 26 31 338 346 302 290 312 313 262 223 202 204 203 192 178 178 168 132 80 26 5 299 282 260 263
9 27 22 353 349 344 344 357 26 70 69 64 90 154 245 283 264 228 213 226 175 88 72 210 278 9 126 193 272 300 339 1 338 359 50 13 353 99 96 356 331 15 351 10 199 263 76 118 290 288 240 304 356 40 357 320 338 10 7 353 45 148 179 237 63 163 225 296 291 317 343 296 234 202 193 203 194 172 177 179 169 208 239 253 287 291 268 264
55 21 242 346 349 346 7 40 46 55 63 91 162 183 336 273 270 285 300 327 309 98 48 204 201 349 316 295 317 309 340 354 307 331 346 339 337 19 53 43 321 327 336 31 81 314 20 119 258 289 316 337 343 2 309 259 300 352 22 8 347 323 63 38 39 110 130 237 252 321 321 272 241 197 202 200 177 163 169 168 192 226 242 258 283 300 288 273
69 41 270 342 348 345 68 48 43 57 82 98 134 190 11 16 305 338 351 360 14 182 155 157 159 143 311 337 346 291 322 327 300 298 283 308 5 4 13 50 159 313 338 26 43 359 12 145 232 295 330 324 280 274 247 219 201 159 104 90 163 44 53 58 314 323 69 158 184 185 296 271 266 32 193 160 141 161 163 159 200 241 250 262 276 288 292 282
67 63 306 344 350 28 88 50 20 63 89 84 53 159 359 36 48 343 347 20 24 313 59 102 134 136 161 252 307 260 306 303 266 314 264 239 215 301 348 9 321 274 17 19 322 282 125 103 31 284 276 278 289 296 296 216 148 124 99 118 133 94 91 128 243 276 335 284 179 121 294 269 279 10 78 115 136 167 164 167 220 265 265 273 276 278 288 288
73 165 322 352 353 109 83 45 327 24 46 264 329 166 325 36 107 321 346 15 5 351 18 25 149 35 137 221 335 269 270 247 213 223 252 242 261 277 328 332 301 318 57 22 315 339 55 73 20 295 288 308 321 330 24 36 81 90 29 45 100 31 94 154 186 184 223 257 187 80 291 267 279 55 111 117 134 161 182 207 262 284 286 293 287 288 299 296
103 207 316 3 12 113 99 71 142 44 346 288 26 24 336 26 124 356 349 348 358 67 49 356 210 24 351 136 127 214 259 295 248 278 349 209 239 343 26 331 317 25 68 76 326 340 331 5 40 346 340 344 347 353 353 348 18 64 352 10 85 68 81 121 161 89 256 239 163 137 250 262 279 76 119 140 163 228 252 256 280 296 298 301 297 298 302 299
67 163 282 5 29 63 105 151 145 132 221 30 46 12 348 17 90 9 71 343 350 147 117 338 269 129 295 81 25 280 289 260 256 325 19 283 267 321 38 349 338 36 296 299 340 333 234 214 110 72 357 324 320 314 301 305 325 344 340 336 350 68 99 176 205 77 254 255 141 153 227 267 284 225 244 247 245 309 305 294 291 295 298 298 302 305 302 312
77 61 308 343 23 52 80 140 101 111 144 108 57 10 14 11 309 288 151 114 8 121 81 316 287 63 27 25 9 320 307 270 266 332 355 287 281 297 342 328 317 270 290 324 38 69 107 234 208 160 185 216 248 258 263 359 315 294 303 307 316 26 82 113 101 134 195 214 318 222 230 319 323 311 273 272 338 347 320 314 308 307 313 309 306 311 320 343
87 92 23 325 354 28 34 17 40 71 124 119 93 11 357 331 321 341 144 170 62 20 56 25 32 44 15 9 12 305 297 322 318 318 308 267 275 290 299 314 310 309 321 24 66 82 82 321 304 184 217 233 246 266 295 358 269 260 279 282 304 38 67 121 154 234 191 90 296 257 166 331 312 330 5 358 2 344 320 323 320 314 317 313 312 325 334 341
68 139 184 155 56 41 27 10 47 63 49 77 112 26 3 357 355 357 283 317 11 359 28 20 20 39 38 326 22 303 310 337 323 287 342 322 312 329 340 8 338 330 3 26 355 89 111 275 282 190 267 263 259 276 288 277 246 238 250 266 312 32 93 182 230 248 196 214 274 279 352 310 302 337 22 5 342 328 319 318 313 310 313 316 325 336 331 331
76 114 292 6 90 141 166 334 77 76 43 51 81 39 37 28 1 315 254 348 356 342 39 6 331 350 327 224 150 274 301 337 317 293 305 338 318 342 350 329 313 346 34 39 350 93 134 261 262 137 300 293 289 290 287 279 286 287 279 292 351 45 179 203 239 246 215 244 278 326 329 304 298 348 6 341 328 317 312 312 313 317 322 329 341 341 334 343
121 141 153 53 63 90 37 8 66 76 34 36 60 34 65 63 334 306 265 69 352 326 20 1 309 321 322 182 160 226 241 210 263 265 205 14 313 253 254 255 257 344 14 46 348 337 57 304 293 82 332 305 312 336 331 328 283 282 328 8 19 33 79 176 294 7 332 291 310 337 319 295 282 23 332 325 324 324 325 324 322 324 330 337 342 342 343 345
98 128 140 104 58 354 5 21 62 81 36 12 40 13 350 322 288 288 276 220 188 277 323 319 304 318 10 126 182 246 248 207 226 242 208 201 263 229 224 229 177 350 355 28 351 348 33 355 354 52 5 290 305 351 332 337 71 62 359 355 356 13 25 314 322 342 286 304 320 332 322 302 308 345 325 318 330 333 329 326 324 326 337 351 343 339 344 339
98 75 93 104 75 354 8 13 30 75 65 340 355 283 301 296 278 280 317 312 232 229 222 187 207 327 339 333 276 248 244 216 220 237 213 201 241 245 249 237 114 52 322 90 33 360 85 86 12 49 355 273 297 333 321 341 45 26 325 313 306 323 328 316 322 285 245 270 310 309 311 306 315 333 331 331 333 330 326 327 327 328 343 6 345 335 336 336